Location: Grossmotten
(48.5500°N, 15.3833°E)
Time: 08:27:00
(UTC+00:00)

Gbstr 26 Del rocket - Pass Details

Date: 15 November 2019
Orbit: 493 x 1264 km, 51.8° (Epoch: 11 December)

Event Time Altitude Azimuth Distance (km) Brightness Sun altitude
Exits shadow 04:17:12 27° 223° (SW) 1,004 3.8 -17.9°
Maximum altitude 04:19:06 61° 151° (SSE) 571 3.0 -17.6°
Drops below altitude 10° 04:22:47 10° 71° (ENE) 1,694 6.3 -17.0°
Sets 04:24:58 0° 68° (ENE) 2,601 7.3 -16.6°
